Volver al catálogo

FALCON 9 R/B

ActivoVLEO
NORAD 61732·ROCKET BODY·🇺🇸 United States

Lanzado Oct 7, 2024 desde Cape Canaveral Space Force Station

Loading…

Próximos Pases (próximas 24 horas)

TLE

ObsoletoSource: Space-Track

Época: Oct 7, 2024, 14:59 UTC

1 61732U 24180B   24281.62491802 -.00000101  32184-6  00000-0 0  9990
2 61732  34.1400  34.7539 0027900 134.8400 359.2800 16.36805402    04

Sigue FALCON 9 R/B en tiempo real con AllMySat

Download on the App Store